Flag for U.S.A. Weather past 2 weeks in Milwaukee, Wisconsin, U.S.A.

Now
77 °F

Broken clouds.


Feels Like: 79 °F
Forecast: 69 / 77 °F
Wind: 12 mph from Southwest

Location: Milwaukee / Timmerman

Current Time: Aug 30, 2014 at 5:15:29 PM

Latest Report: Aug 30, 2014 at 3:45 PM


Visibility: 10 mi

Pressure: 29.80 "Hg

Humidity: 65%

Dew point: 64 °F

Location of MilwaukeeLocation

Historic Weather in Milwaukee — Graph

°F

Milwaukee temperature yesterday

Maximum temperature yesterday: 82 °F (at 3:45 PM)
Minimum temperature yesterday: 66 °F (at 12:15 AM)
Average temperature yesterday: 72 °F

Past Weeks' High & Low Weather Summary

 TemperatureHumidityPressure
High82 °F (Aug 16, 3:45 PM)94% (Aug 17, 1:55 AM)30.19 "Hg (Aug 17, 1:55 AM)
Low54 °F (Aug 28, 5:15 AM)42% (Aug 15, 4:45 PM)29.68 "Hg (Aug 19, 1:45 PM)
Average68 °F80%29.97 "Hg
* Reported Aug 15 3:45 PM — Aug 30 3:45 PM, Milwaukee, Weather by CustomWeather, © 2014

Note: Actual official high and low records may vary slightly from our data, if they occured in-between our weather recording intervals... More about our weather records

Advertising

Milwaukee weather history for previous 24 hours

 ConditionsComfort  
Time TempWeatherWind HumidityBarometerVisibility
3:45 PM
Aug 30
77 °FBroken clouds.12 mph65%29.80 "Hg10 mi
1:45 PM75 °FCloudy.14 mph74%29.80 "Hg10 mi
12:45 PM73 °FPartly sunny.13 mph74%29.80 "Hg10 mi
11:45 AM73 °FMostly cloudy.9 mph74%29.80 "Hg10 mi
10:45 AM75 °FPartly sunny.14 mph65%29.80 "Hg10 mi
9:45 AM73 °FScattered clouds.16 mph74%29.81 "Hg10 mi
8:45 AM73 °FScattered clouds.12 mph74%29.81 "Hg10 mi
7:45 AM70 °FScattered clouds.12 mph83%29.81 "Hg10 mi
6:45 AM70 °FPassing clouds.8 mph83%29.80 "Hg10 mi
6:35 AM70 °FPassing clouds.12 mph83%29.81 "Hg10 mi
6:15 AM70 °FPartly cloudy.8 mph83%29.81 "Hg10 mi
5:55 AM70 °FPassing clouds.8 mph83%29.81 "Hg10 mi
5:35 AM70 °FClear.7 mph83%29.80 "Hg10 mi
5:15 AM70 °FPassing clouds.10 mph83%29.80 "Hg10 mi
4:55 AM72 °FOvercast.12 mph78%29.80 "Hg10 mi
4:35 AM72 °FOvercast.12 mph78%29.81 "Hg10 mi
4:15 AM72 °FPassing clouds.9 mph78%29.80 "Hg10 mi
3:55 AM72 °FLight rain. Passing clouds.8 mph83%29.80 "Hg10 mi
3:35 AM72 °FRain. Partly cloudy.7 mph83%29.81 "Hg10 mi
3:15 AM72 °FPartly cloudy.7 mph83%29.81 "Hg10 mi
2:55 AM72 °FMostly cloudy.6 mph83%29.81 "Hg10 mi
2:35 AM72 °FPartly cloudy.8 mph83%29.81 "Hg10 mi
2:15 AM72 °FPassing clouds.9 mph83%29.81 "Hg10 mi
1:55 AM72 °FClear.7 mph88%29.82 "Hg7 mi
1:35 AM72 °FClear.8 mph88%29.83 "Hg7 mi
1:15 AM72 °FClear.8 mph88%29.83 "Hg7 mi
12:55 AM72 °FClear.7 mph88%29.84 "Hg7 mi
12:35 AM72 °FClear.6 mph88%29.84 "Hg7 mi
12:15 AM72 °FPassing clouds.3 mph83%29.84 "Hg10 mi
11:55 PM
Aug 29
72 °FPartly cloudy.6 mph78%29.85 "Hg10 mi
11:35 PM73 °FPartly cloudy.6 mph83%29.85 "Hg10 mi
11:15 PM73 °FLight rain. Partly cloudy.7 mph83%29.86 "Hg7 mi
10:55 PM73 °FRain. Partly cloudy.8 mph89%29.87 "Hg7 mi
10:35 PM73 °FRain. Passing clouds.8 mph83%29.87 "Hg7 mi
10:15 PM75 °FClear.10 mph78%29.86 "Hg7 mi
9:55 PM75 °FClear.9 mph78%29.86 "Hg7 mi
9:15 PM75 °FClear.10 mph78%29.86 "Hg7 mi
7:45 PM75 °FSunny.9 mph78%29.87 "Hg10 mi
5:45 PM82 °FSunny.10 mph66%29.87 "Hg10 mi
Weather by CustomWeather, © 2014

See weather overviewHow to use our weather pages